• In Hungary
  • List of Countries
  • For 7 days
  • Water Temperature
  • Satellite Maps
  • Weather Map
  • News
  • Weather Widgets
  • user-avatar
    Login

    Hourly Weather Tahoua

    Today, 22 September, Saturday

    Time Temperature Precipitation Wind Pressure Humidity
    00:00 +36°C° 0 mm 2 mps 724 mmHg 27%
    01:00 +36°C° 0 mm 2 mps 724 mmHg 29%
    02:00 +35°C° 0 mm 2 mps 724 mmHg 30%
    03:00 +34°C° 0 mm 2 mps 724 mmHg 32%
    04:00 +34°C° 0 mm 3 mps 724 mmHg 34%
    05:00 +34°C° 0 mm 3 mps 724 mmHg 37%
    06:00 +33°C° 0 mm 4 mps 725 mmHg 41%
    07:00 +35°C° 0 mm 4 mps 725 mmHg 40%
    08:00 +36°C° 0 mm 5 mps 725 mmHg 39%
    09:00 +37°C° 0 mm 5 mps 726 mmHg 38%
    10:00 +38°C° 0 mm 4 mps 725 mmHg 35%
    11:00 +39°C° 0 mm 3 mps 725 mmHg 31%
    12:00 +40°C° 0 mm 3 mps 725 mmHg 27%
    13:00 +40°C° 0 mm 2 mps 724 mmHg 25%
    14:00 +40°C° 0 mm 2 mps 724 mmHg 24%
    15:00 +41°C° 0 mm 1 mps 723 mmHg 22%
    16:00 +40°C° 0 mm 1 mps 723 mmHg 23%
    17:00 +40°C° 0 mm 1 mps 723 mmHg 23%
    18:00 +40°C° 0 mm 1 mps 723 mmHg 23%
    19:00 +40°C° 0 mm 1 mps 724 mmHg 23%
    20:00 +39°C° 0 mm 1 mps 724 mmHg 24%
    21:00 +39°C° 0 mm 1 mps 724 mmHg 25%
    22:00 +37°C° 0 mm 1 mps 724 mmHg 26%
    23:00 +36°C° 0 mm 1 mps 724 mmHg 27%

    Tomorrow, 23 September, Sunday

    Time Temperature Precipitation Wind Pressure Humidity
    00:00 +34°C° 0 mm 0 mps 724 mmHg 29%
    01:00 +35°C° 0 mm 1 mps 724 mmHg 29%
    02:00 +35°C° 0 mm 1 mps 723 mmHg 30%
    03:00 +34°C° 0 mm 1 mps 723 mmHg 31%
    04:00 +35°C° 0 mm 2 mps 723 mmHg 33%
    05:00 +35°C° 0 mm 2 mps 724 mmHg 35%
    06:00 +34°C° 0 mm 3 mps 724 mmHg 37%
    07:00 +35°C° 0 mm 4 mps 725 mmHg 39%
    08:00 +35°C° 0 mm 6 mps 725 mmHg 42%
    09:00 +36°C° 0 mm 7 mps 726 mmHg 45%
    10:00 +36°C° 0 mm 7 mps 726 mmHg 43%
    11:00 +38°C° 0 mm 7 mps 726 mmHg 41%
    12:00 +39°C° 0 mm 6 mps 725 mmHg 39%
    13:00 +39°C° 0 mm 5 mps 725 mmHg 36%
    14:00 +40°C° 0 mm 4 mps 724 mmHg 33%
    15:00 +40°C° 0 mm 3 mps 723 mmHg 30%
    16:00 +39°C° 0.1 mm 3 mps 724 mmHg 30%
    17:00 +39°C° 0.1 mm 2 mps 724 mmHg 30%
    18:00 +39°C° 0.1 mm 1 mps 724 mmHg 31%
    19:00 +38°C° 0.1 mm 2 mps 724 mmHg 32%
    20:00 +38°C° 0.1 mm 3 mps 725 mmHg 34%
    21:00 +37°C° 0.1 mm 3 mps 725 mmHg 35%
    22:00 +36°C° 0 mm 3 mps 725 mmHg 36%
    23:00 +36°C° 0 mm 3 mps 724 mmHg 37%

    Day after tomorrow, 24 September, Monday

    Time Temperature Precipitation Wind Pressure Humidity
    00:00 +36°C° 0 mm 2 mps 724 mmHg 38%
    01:00 +35°C° 0 mm 3 mps 724 mmHg 41%
    02:00 +34°C° 0 mm 4 mps 724 mmHg 44%
    03:00 +34°C° 0 mm 4 mps 724 mmHg 46%
    04:00 +33°C° 0 mm 4 mps 724 mmHg 49%
    05:00 +33°C° 0 mm 4 mps 724 mmHg 51%
    06:00 +31°C° 0 mm 3 mps 725 mmHg 53%
    07:00 +34°C° 0 mm 4 mps 725 mmHg 49%
    08:00 +35°C° 0 mm 4 mps 726 mmHg 45%
    09:00 +37°C° 0 mm 5 mps 726 mmHg 40%
    10:00 +38°C° 0 mm 4 mps 726 mmHg 35%
    11:00 +40°C° 0 mm 3 mps 726 mmHg 29%
    12:00 +41°C° 0 mm 2 mps 725 mmHg 24%
    13:00 +42°C° 0 mm 2 mps 724 mmHg 21%
    14:00 +42°C° 0 mm 2 mps 724 mmHg 19%
    15:00 +44°C° 0 mm 3 mps 723 mmHg 16%
    16:00 +42°C° 0 mm 2 mps 723 mmHg 16%
    17:00 +41°C° 0 mm 2 mps 723 mmHg 17%
    18:00 +41°C° 0 mm 1 mps 723 mmHg 17%
    19:00 +40°C° 0 mm 1 mps 723 mmHg 18%
    20:00 +39°C° 0 mm 2 mps 724 mmHg 19%
    21:00 +38°C° 0 mm 2 mps 724 mmHg 20%
    22:00 +38°C° 0 mm 2 mps 724 mmHg 22%
    23:00 +37°C° 0 mm 2 mps 724 mmHg 24%

    25 September, Tuesday

    Time Temperature Precipitation Wind Pressure Humidity
    00:00 +36°C° 0 mm 2 mps 724 mmHg 25%
    01:00 +35°C° 0 mm 1 mps 723 mmHg 28%
    02:00 +34°C° 0 mm 1 mps 723 mmHg 30%
    03:00 +33°C° 0 mm 1 mps 723 mmHg 33%
    04:00 +33°C° 0 mm 1 mps 723 mmHg 34%
    05:00 +34°C° 0 mm 2 mps 724 mmHg 35%
    06:00 +34°C° 0 mm 2 mps 724 mmHg 37%
    07:00 +35°C° 0 mm 3 mps 725 mmHg 35%
    08:00 +37°C° 0 mm 3 mps 725 mmHg 33%
    09:00 +38°C° 0 mm 3 mps 726 mmHg 31%
    10:00 +41°C° 0 mm 4 mps 725 mmHg 26%
    11:00 +42°C° 0 mm 5 mps 725 mmHg 21%
    12:00 +45°C° 0 mm 5 mps 724 mmHg 16%
    13:00 +46°C° 0 mm 6 mps 724 mmHg 14%
    14:00 +46°C° 0 mm 6 mps 723 mmHg 13%
    15:00 +46°C° 0 mm 7 mps 722 mmHg 11%
    16:00 +45°C° 0 mm 6 mps 722 mmHg 12%
    17:00 +43°C° 0 mm 5 mps 722 mmHg 13%
    18:00 +42°C° 0 mm 4 mps 722 mmHg 14%
    19:00 +40°C° 0 mm 3 mps 723 mmHg 16%
    20:00 +39°C° 0 mm 3 mps 723 mmHg 17%
    21:00 +39°C° 0 mm 2 mps 724 mmHg 19%
    22:00 +37°C° 0 mm 4 mps 724 mmHg 27%
    23:00 +36°C° 0 mm 5 mps 724 mmHg 36%

    26 September, Wednesday

    Time Temperature Precipitation Wind Pressure Humidity
    00:00 +35°C° 0 mm 7 mps 724 mmHg 44%
    01:00 +34°C° 0 mm 5 mps 723 mmHg 48%
    02:00 +34°C° 0 mm 4 mps 723 mmHg 52%
    03:00 +32°C° 0 mm 2 mps 723 mmHg 56%
    04:00 +32°C° 0 mm 2 mps 724 mmHg 57%
    05:00 +32°C° 0 mm 2 mps 724 mmHg 58%
    06:00 +32°C° 0 mm 2 mps 725 mmHg 59%
    07:00 +34°C° 0 mm 3 mps 725 mmHg 55%
    08:00 +35°C° 0 mm 3 mps 726 mmHg 51%
    09:00 +36°C° 0 mm 4 mps 726 mmHg 47%
    10:00 +37°C° 0 mm 3 mps 726 mmHg 41%
    11:00 +39°C° 0 mm 3 mps 725 mmHg 36%
    12:00 +40°C° 0 mm 2 mps 724 mmHg 30%
    13:00 +40°C° 0 mm 2 mps 724 mmHg 27%
    14:00 +41°C° 0 mm 2 mps 723 mmHg 25%
    15:00 +42°C° 0 mm 1 mps 723 mmHg 22%
    16:00 +41°C° 0.1 mm 1 mps 723 mmHg 22%
    17:00 +41°C° 0.1 mm 2 mps 723 mmHg 23%
    18:00 +41°C° 0.1 mm 2 mps 723 mmHg 23%
    19:00 +40°C° 0 mm 2 mps 724 mmHg 24%
    20:00 +39°C° 0 mm 3 mps 724 mmHg 25%
    21:00 +39°C° 0 mm 3 mps 724 mmHg 27%
    22:00 +38°C° 0 mm 3 mps 724 mmHg 28%
    23:00 +38°C° 0 mm 3 mps 723 mmHg 29%

    27 September, Thursday

    Time Temperature Precipitation Wind Pressure Humidity
    00:00 +37°C° 0 mm 3 mps 723 mmHg 30%
    01:00 +36°C° 0 mm 4 mps 723 mmHg 33%
    02:00 +36°C° 0 mm 4 mps 723 mmHg 36%
    03:00 +35°C° 0 mm 4 mps 723 mmHg 39%
    04:00 +34°C° 0 mm 4 mps 723 mmHg 42%
    05:00 +34°C° 0 mm 4 mps 723 mmHg 46%
    06:00 +33°C° 0 mm 4 mps 724 mmHg 50%
    07:00 +35°C° 0 mm 5 mps 724 mmHg 45%
    08:00 +36°C° 0 mm 6 mps 725 mmHg 41%
    09:00 +39°C° 0 mm 6 mps 725 mmHg 37%
    10:00 +40°C° 0 mm 6 mps 725 mmHg 34%
    11:00 +41°C° 0 mm 5 mps 724 mmHg 30%
    12:00 +42°C° 0 mm 5 mps 723 mmHg 27%
    13:00 +43°C° 0 mm 4 mps 723 mmHg 24%
    14:00 +42°C° 0 mm 2 mps 722 mmHg 21%
    15:00 +42°C° 0 mm 1 mps 722 mmHg 19%
    16:00 +42°C° 0 mm 1 mps 722 mmHg 19%
    17:00 +42°C° 0 mm 1 mps 722 mmHg 20%
    18:00 +41°C° 0 mm 2 mps 722 mmHg 20%
    19:00 +41°C° 0 mm 2 mps 723 mmHg 21%
    20:00 +40°C° 0 mm 2 mps 723 mmHg 22%
    21:00 +40°C° 0 mm 3 mps 723 mmHg 23%
    22:00 +40°C° 0 mm 4 mps 723 mmHg 26%
    23:00 +38°C° 0 mm 4 mps 723 mmHg 29%
    Show more